Weather Service Report


068 
ASUS41 KCTP 260110
RWRCTP

REGIONAL WEATHER ROUNDUP
NATIONAL WEATHER SERVICE STATE COLLEGE PA
900 PM EDT THU AUG 25 2016

Note: "fair" indicates few or no clouds below 12,000 feet with no 
significant weather and/or obstructions to visibility.

* = STATION THAT DOES NOT REPORT PRECIPITATION /E.G. RAIN...SNOW...ETC/
    THUNDER OR FOG.

PAZ002>004-007>009-013>016-020>023-029>032-260200-
WESTERN PENNSYLVANIA
  
CITY           SKY/WX    TMP DP  RH WIND       PRES   REMARKS
ERIE           MOCLDY    77  72  84 N8G16     29.98R                  
MEADVILLE      CLOUDY    73  70  90 SW6       30.03R                  
FRANKLIN*        N/A     73  70  88 SW9       30.04R THUNDER          
NEW CASTLE     MOCLDY    74  72  93 CALM      30.02R                  
BEAVER COUNTY  MOCLDY   N/A N/A N/A SW7         N/A  THUNDER          
BUTLER*        NOT AVBL                                               
PITTSBURGH INT MOCLDY    81  72  74 SW5       30.04R                  
PITTSBURGH     PTCLDY    80  73  79 SW8       30.03S                  
INDIANA*       MOCLDY    79  73  83 MISG      30.06S                  
LATROBE        MOCLDY    81  73  78 SW7       30.04S                  
WASHINGTON CO* CLEAR     81  72  74 SW6       30.05S                  
$$

PAZ004>006-010>012-017>019-024>028-033>037-041-042-045-046-049>053-260200-
CENTRAL PENNSYLVANIA
  
CITY           SKY/WX    TMP DP  RH WIND       PRES   REMARKS
BRADFORD       CLOUDY    76  70  82 SW5       30.04S                  
DUBOIS         MOCLDY    78  68  71 S6        30.03S                  
CLEARFIELD     CLEAR     77  70  79 S3        30.04S                  
JOHNSTOWN      PTCLDY    77  70  79 SW8       30.10S                  
ALTOONA        CLEAR     76  70  82 SW7       30.06S                  
STATE COLLEGE  CLEAR     77  70  78 SW5       30.03S                  
WILLIAMSPORT   CLEAR     79  71  76 CALM      29.97S                  
SELINSGROVE    CLEAR     75  75 100 NW3       30.00R                  
FT INDIANTOWN  CLEAR     76  73  92 NE2       30.02R                  
CAPITAL CITY   PTCLDY    83  73  72 SE6       30.00R                  
HARRISBURG     PTCLDY    78  77  96 SE5       30.00R                  
YORK           CLEAR     81  72  74 S3        30.02R                  
$$

PAZ038>040-043-044-047-048-054-055-060>062-067>071-260200-
EASTERN PENNSYLVANIA
  
CITY           SKY/WX    TMP DP  RH WIND       PRES   REMARKS
SCRANTON       CLEAR     75  71  87 CALM      30.03R                  
MOUNT POCONO   CLEAR     70  68  93 W3        30.09R                  
ALLENTOWN      CLEAR     80  70  71 SW7       30.02R                  
QUAKERTOWN*    CLEAR     77  72  83 CALM      30.04S                  
READING        CLEAR     79  71  76 S7        30.01R                  
LANCASTER      CLEAR     78  74  87 E3        30.02R                  
COATESVILLE    CLEAR     75  72  88 CALM      30.06S                  
POTTSTOWN      CLEAR     77  72  84 CALM      30.04S                  
BLUE BELL      CLEAR     77  70  78 SW3       30.03R                  
DOYLESTOWN     CLEAR     78  72  81 S3        30.03R                  
WILLOW GROVE   NOT AVBL                                               
NORTH PHILA    CLEAR     82  73  74 S6        30.04R                  
PHILADELPHIA   MOCLDY    81  71  71 S7        30.03R                  
$$
  

Return to Home page


Western Regional Climate Center, wrcc@dri.edu